Main page
METAR-TAF:

METAR-TAF

Airports :

RAF Holbeach

Holbeach, England

latitude: 52-52N, longitude: 000-09E, elevation: 3 m

Current weather observation

The report was made 36 minutes ago, at 13:50 UTC
Wind 18 kt from the Southwest
Temperature 14°C
Humidity 77%
Pressure 1020 hPa
Visibility 10 km or more
Few clouds at a height of 3000 ft
Scattered clouds at a height of 10000 ft

METAR: EGYH 141350Z 22018KT 9999 FEW030 SCT100 14/10 Q1020 BLU

Time: 14:26 (14:26 UTC)


TAF: missing

Weather observations and forecasts of more than 4000 airports (METAR and TAF reports).

The available stations are represented by yellow and red dots on the map.

Hover mouse over dot to see the name of the station.

Then click to see weather observations and forecasts.

To change the map : click on the green buttons with a black cross to zoom in, on the green button with a dash to zoom out, or on the green arrows for adjacent maps.


METAR-TAF: